Weather History for ROIG - February, 2013

Change the Weather History Date:

Tuesday, February 12, 2013

  Actual Average Record
Temperature  
Mean Temperature 72 °F -  
Max Temperature 79 °F 70 °F - ()
Min Temperature 66 °F 62 °F - ()
Cooling Degree Days 7    
Growing Degree Days 22 (Base 50)    
Moisture  
Dew Point 68 °F    
Average Humidity 81    
Maximum Humidity 94    
Minimum Humidity 67    
Precipitation  
Precipitation 0.20 in - - ()
Sea Level Pressure  
Sea Level Pressure 30.07 in    
Wind  
Wind Speed 10 mph ()    
Max Wind Speed 17 mph    
Max Gust Speed 23 mph    
Visibility 7.2 miles    
Events Rain    
T = Trace of Precipitation, MM = Missing Value Source: Averaged Metar Reports

Daily Weather History Graph

Daily Weather History Graph

Search for Another Location

Airport or City:

Trip Planner

Search our weather history database for the weather conditions in past years. The results will help you decide how hot, cold, wet, or windy it might be!

Date:

Astronomy

Feb. 12, 2013 Rise Set
Actual Time 7:19 AM JST 6:36 PM JST
Civil Twilight 6:55 AM JST 6:59 PM JST
Nautical Twilight 6:29 AM JST 7:26 PM JST
Astronomical Twilight 6:02 AM JST 7:53 PM JST
Moon 8:15 AM JST (2/12) 8:37 PM JST (2/12)
Length of Visible Light 12h 03m
Length of Day
11h 17m
Waxing Crescent, 4% of the Moon is Illuminated
Feb 12
Waxing Crescent
Feb 18
First Quarter
Feb 26
Full
Mar 5
Last Quarter
Mar 12
New

Hourly Weather History & Observations

Time (JST) Temp. Dew Point Humidity Pressure Visibility Wind Dir Wind Speed Gust Speed Precip Events Conditions
12:00 AM 72 °F 66 °F 77% 30.11 in - SE 8.1 mph - -  
3:00 AM 72 °F 67 °F 80% 30.07 in 12 mi SSE 12.7 mph - - Rain Light Rain Showers
6:00 AM 72 °F 67 °F 81% 30.07 in 12 mi SSE 11.5 mph - -   Partly Cloudy
6:00 AM 71.6 °F 66.2 °F 83% 30.06 in 6.2 mi SSE 6.9 mph - N/A   Partly Cloudy
7:00 AM 71.6 °F 68.0 °F 88% 30.06 in 6.2 mi SSE 10.4 mph - N/A   Partly Cloudy
8:00 AM 73.4 °F 68.0 °F 83% 30.09 in 6.2 mi SSE 9.2 mph - N/A   Partly Cloudy
9:00 AM 74 °F 68 °F 76% 30.11 in 12 mi South 12.7 mph - -   Partly Cloudy
9:00 AM 75.2 °F 68.0 °F 78% 30.09 in 6.2 mi South 10.4 mph 21.9 mph N/A   Partly Cloudy
10:00 AM 75.2 °F 68.0 °F 78% 30.09 in 6.2 mi South 9.2 mph - N/A   Partly Cloudy
11:00 AM 77.0 °F 69.8 °F 78% 30.09 in 6.2 mi South 10.4 mph - N/A   Scattered Clouds
12:00 PM 77 °F 70 °F 72% 30.10 in 12 mi South 12.7 mph - -   Mostly Cloudy
12:00 PM 78.8 °F 69.8 °F 74% 30.09 in 6.2 mi South 12.7 mph - N/A   Mostly Cloudy
1:00 PM 78.8 °F 69.8 °F 74% 30.06 in 6.2 mi South 12.7 mph - N/A   Partly Cloudy
2:00 PM 77.0 °F 69.8 °F 78% 30.04 in 6.2 mi South 13.8 mph - N/A   Partly Cloudy
3:00 PM 78 °F 69 °F 67% 30.04 in 12 mi South 12.7 mph - -   Scattered Clouds
3:00 PM 77.0 °F 69.8 °F 78% 30.01 in 6.2 mi SSW 13.8 mph - N/A   Mostly Cloudy
4:00 PM 77.0 °F 69.8 °F 78% 30.01 in 6.2 mi SSW 11.5 mph - N/A   Mostly Cloudy
5:00 PM 75.2 °F 69.8 °F 83% 30.04 in 6.2 mi SW 10.4 mph - N/A   Mostly Cloudy
6:00 PM 71 °F 68 °F 89% 30.07 in 5 mi North 13.8 mph - - Rain Light Rain Showers
6:00 PM 71.6 °F 68.0 °F 88% 30.06 in 2.5 mi NNW 11.5 mph 23.0 mph N/A Rain Rain Showers
7:00 PM 68.0 °F 66.2 °F 94% 30.06 in 4.3 mi North 17.3 mph - N/A Rain Light Rain Showers
8:00 PM 66.2 °F 64.4 °F 94% 30.09 in 3.7 mi North 12.7 mph - N/A Rain Light Rain
9:00 PM 66 °F 63 °F 85% 30.14 in 9 mi NNE 17.3 mph - - Rain Light Rain Showers